Weather History for KRDR - January, 2014

Change the Weather History Date:

Sunday, January 26, 2014

  Actual Average Record
Temperature  
Mean Temperature 0 °F -  
Max Temperature 12 °F 15 °F 39 °F (2015)
Min Temperature -13 °F 0 °F -31 °F (1997)
Degree Days  
Heating Degree Days 66    
Moisture  
Dew Point -8 °F    
Average Humidity 74    
Maximum Humidity 85    
Minimum Humidity 59    
Precipitation  
Precipitation 0.00 in - - ()
Sea Level Pressure  
Sea Level Pressure 29.79 in    
Wind  
Wind Speed 17 mph (North)    
Max Wind Speed 36 mph    
Max Gust Speed 47 mph    
Visibility 5 miles    
Events Snow    
Averages and records for this station are not official NWS values.
T = Trace of Precipitation, MM = Missing Value Source: NWS Daily Summary

Daily Weather History Graph

Daily Weather History Graph

Search for Another Location

Airport or City:

Trip Planner

Search our weather history database for the weather conditions in past years. The results will help you decide how hot, cold, wet, or windy it might be!

Date:

Astronomy

Jan. 26, 2014 Rise Set
Actual Time 8:04 AM CST 5:20 PM CST
Civil Twilight 7:30 AM CST 5:54 PM CST
Nautical Twilight 6:52 AM CST 6:32 PM CST
Astronomical Twilight 6:16 AM CST 7:08 PM CST
Moon 3:44 AM CST (1/26) 1:08 PM CST (1/26)
Length of Visible Light 10h 23m
Length of Day
9h 16m
Waning Crescent, 23% of the Moon is Illuminated
Jan 26
Waning Crescent
Jan 30
New
Feb 6
First Quarter
Feb 14
Full
Feb 22
Last Quarter

Hourly Weather History & Observations

Time (CST) Temp. Windchill Dew Point Humidity Pressure Visibility Wind Dir Wind Speed Gust Speed Precip Events Conditions
12:03 AM 3.2 °F - -2.2 °F 78% 29.49 in 6.0 mi Calm Calm - N/A Snow Light Snow
12:13 AM 3.2 °F - -2.2 °F 78% 29.49 in 8.0 mi East 1.2 mph - N/A   Overcast
12:28 AM 3.2 °F -4.2 °F -2.2 °F 78% 29.47 in 10.0 mi SSE 3.5 mph - N/A   Overcast
12:33 AM 3.2 °F - -2.2 °F 78% 29.47 in 10.0 mi South 2.3 mph - N/A   Overcast
12:38 AM 3.2 °F - -2.2 °F 78% 29.47 in 10.0 mi South 1.2 mph - N/A   Overcast
12:43 AM 3.2 °F - -2.2 °F 78% 29.47 in 10.0 mi SSE 1.2 mph - N/A Snow Light Snow
12:53 AM 3.2 °F - -2.2 °F 78% 29.48 in 10.0 mi Calm Calm - N/A   Overcast
12:58 AM 3.2 °F - -2.2 °F 78% 29.57 in 10.0 mi NW 1.2 mph - 0.00 in   Overcast
1:03 AM 3.2 °F - -2.2 °F 78% 29.49 in 10.0 mi Calm Calm - N/A   Overcast
1:19 AM 3.2 °F - -2.2 °F 78% 29.49 in 10.0 mi Calm Calm - N/A Snow Light Snow
1:32 AM 3.2 °F - -2.2 °F 78% 29.46 in 10.0 mi ESE 1.2 mph - N/A   Overcast
1:58 AM 2.7 °F - -1.8 °F 81% 29.54 in 10.0 mi North 1.2 mph - 0.00 in   Overcast
2:15 AM 3.2 °F - -2.2 °F 78% 29.46 in 10.0 mi NW 1.2 mph - N/A   Overcast
2:20 AM 3.2 °F -4.2 °F -2.2 °F 78% 29.46 in 10.0 mi WNW 3.5 mph - N/A   Overcast
2:27 AM 3.2 °F - -2.2 °F 78% 29.45 in 10.0 mi West 2.3 mph - N/A Snow Light Snow
2:44 AM 3.2 °F -4.2 °F -2.2 °F 78% 29.46 in 10.0 mi West 3.5 mph - N/A   Overcast
2:55 AM 3.2 °F -6.2 °F -0.4 °F 85% 29.46 in 10.0 mi West 4.6 mph - N/A Snow Light Snow
2:58 AM 3.4 °F -7.5 °F -1.1 °F 82% 29.54 in 10.0 mi West 5.8 mph - 0.00 in Snow Light Snow
3:06 AM 3.2 °F -6.2 °F -0.4 °F 85% 29.46 in 10.0 mi West 4.6 mph - N/A   Overcast
3:31 AM 5.0 °F -4.1 °F -0.4 °F 78% 29.44 in 10.0 mi WSW 4.6 mph - N/A   Overcast
3:35 AM 5.0 °F -2.1 °F -0.4 °F 78% 29.43 in 10.0 mi WSW 3.5 mph - N/A Snow Light Snow
3:45 AM 5.0 °F -4.1 °F -0.4 °F 78% 29.44 in 10.0 mi WSW 4.6 mph - N/A Snow Light Snow
3:50 AM 5.0 °F -4.1 °F -0.4 °F 78% 29.43 in 8.0 mi WSW 4.6 mph - N/A Snow Light Snow
3:58 AM 5.0 °F -2.1 °F 0.1 °F 80% 29.51 in 6.0 mi West 3.5 mph - 0.00 in Snow Light Snow
3:59 AM 5.0 °F -4.1 °F -0.4 °F 78% 29.43 in 6.0 mi West 4.6 mph - N/A Snow Light Snow
4:04 AM 5.0 °F -2.1 °F 1.4 °F 85% 29.43 in 10.0 mi NW 3.5 mph - N/A Snow Light Snow
4:09 AM 5.0 °F -4.1 °F 1.4 °F 85% 29.42 in 10.0 mi NW 4.6 mph - N/A Snow Light Snow
4:29 AM 12.2 °F -7.5 °F 6.8 °F 79% 29.41 in 10.0 mi NNW 24.2 mph 29.9 mph N/A Snow Light Snow
4:30 AM 12.2 °F -6.3 °F 6.8 °F 79% 29.42 in 9.0 mi NNW 20.7 mph 29.9 mph N/A   Overcast
4:35 AM 12.2 °F -7.1 °F 6.8 °F 79% 29.42 in 9.0 mi NNW 23.0 mph 31.1 mph N/A   Overcast
4:50 AM 12.2 °F -7.1 °F 6.8 °F 79% 29.42 in 9.0 mi NNW 23.0 mph 32.2 mph N/A   Overcast
4:55 AM 12.2 °F -5.8 °F 6.8 °F 79% 29.42 in 9.0 mi NNW 19.6 mph 31.1 mph N/A   Overcast
4:57 AM 12.2 °F -6.3 °F 6.8 °F 79% 29.42 in 9.0 mi NNW 20.7 mph 31.1 mph N/A   Light Freezing Rain
4:58 AM 12.6 °F -5.3 °F 6.6 °F 77% 29.50 in 9.0 mi NNW 19.6 mph 31.1 mph 0.00 in   Light Freezing Rain
4:59 AM 12.2 °F -6.7 °F 6.8 °F 79% 29.42 in 9.0 mi NNW 21.9 mph 31.1 mph N/A   Overcast
5:08 AM 12.2 °F -6.7 °F 6.8 °F 79% 29.43 in 7.0 mi NNW 21.9 mph 29.9 mph N/A   Light Freezing Rain
5:13 AM 12.2 °F -6.7 °F 6.8 °F 79% 29.42 in 5.0 mi NNW 21.9 mph 34.5 mph N/A Snow Blowing Snow
5:16 AM 12.2 °F -7.1 °F 6.8 °F 79% 29.43 in 5.0 mi NNW 23.0 mph 34.5 mph N/A Snow Blowing Snow
5:21 AM 12.2 °F -6.7 °F 6.8 °F 79% 29.42 in 5.0 mi NNW 21.9 mph 29.9 mph N/A Snow Blowing Snow
5:31 AM 12.2 °F -6.7 °F 6.8 °F 79% 29.42 in 8.0 mi North 21.9 mph 26.5 mph N/A Snow Blowing Snow
5:34 AM 12.2 °F -7.1 °F 6.8 °F 79% 29.43 in 7.0 mi NNW 23.0 mph 31.1 mph N/A   Overcast
5:35 AM 12.2 °F -7.1 °F 6.8 °F 79% 29.43 in 6.0 mi NNW 23.0 mph 31.1 mph N/A Snow Blowing Snow
5:50 AM 12.2 °F -7.9 °F 5.0 °F 73% 29.43 in 5.0 mi North 25.3 mph 34.5 mph N/A   Light Freezing Rain
5:58 AM 11.3 °F -7.0 °F 4.6 °F 75% 29.52 in 6.0 mi North 19.6 mph 34.5 mph 0.00 in   Light Freezing Rain
6:13 AM 10.4 °F -9.9 °F 5.0 °F 79% 29.46 in 10.0 mi North 24.2 mph 27.6 mph N/A   Light Freezing Rain
6:18 AM 10.4 °F -9.1 °F 5.0 °F 79% 29.46 in 9.0 mi North 21.9 mph 28.8 mph N/A   Light Freezing Rain
6:48 AM 8.6 °F -12.3 °F 3.2 °F 79% 29.45 in 9.0 mi North 24.2 mph - N/A   Light Freezing Rain
6:58 AM 8.6 °F -10.0 °F 2.3 °F 76% 29.52 in 10.0 mi North 18.4 mph - 0.00 in   Light Freezing Rain
7:04 AM 8.6 °F -10.5 °F 1.4 °F 73% 29.46 in 10.0 mi North 19.6 mph - N/A   Overcast
7:21 AM 8.6 °F -8.3 °F 1.4 °F 73% 29.46 in 10.0 mi North 15.0 mph 23.0 mph N/A Snow Light Snow
7:34 AM 8.6 °F -8.3 °F 1.4 °F 73% 29.47 in 10.0 mi North 15.0 mph 21.9 mph N/A   Scattered Clouds
7:58 AM 7.3 °F -9.3 °F 1.4 °F 77% 29.55 in 10.0 mi North 13.8 mph - 0.00 in   Clear
8:25 AM 6.8 °F -15.5 °F -0.4 °F 72% 29.49 in 6.0 mi North 26.5 mph 35.7 mph N/A   Light Freezing Rain
8:30 AM 5.0 °F -19.4 °F -0.4 °F 78% 29.49 in 2.5 mi North 31.1 mph 36.8 mph N/A   Light Freezing Rain
8:33 AM 5.0 °F -20.1 °F -0.4 °F 78% 29.48 in 2.0 mi North 33.4 mph 38.0 mph N/A Snow Blowing Snow
8:35 AM 5.0 °F -20.4 °F -0.4 °F 78% 29.49 in 0.8 mi North 34.5 mph 38.0 mph N/A   Light Freezing Rain
8:40 AM 5.0 °F -19.7 °F -0.4 °F 78% 29.50 in 0.5 mi North 32.2 mph 41.4 mph N/A Snow Snow
8:45 AM 5.0 °F -18.7 °F -2.2 °F 72% 29.52 in 0.5 mi North 28.8 mph 41.4 mph N/A Snow Snow
8:50 AM 3.2 °F -20.7 °F -2.2 °F 78% 29.52 in 1.2 mi North 27.6 mph 35.7 mph N/A Snow Light Snow
8:53 AM 3.2 °F -21.5 °F -2.2 °F 78% 29.52 in 1.8 mi North 29.9 mph 36.8 mph N/A   Light Freezing Rain
8:58 AM 3.2 °F -21.1 °F -2.2 °F 78% 29.62 in 1.2 mi North 28.8 mph 36.8 mph 0.00 in   Light Freezing Rain
9:08 AM 3.2 °F -19.0 °F -4.0 °F 72% 29.53 in 1.5 mi North 23.0 mph 35.7 mph N/A   Light Freezing Rain
9:13 AM 3.2 °F -21.8 °F -4.0 °F 72% 29.53 in 1.8 mi North 31.1 mph 40.3 mph N/A   Light Freezing Rain
9:18 AM 3.2 °F -22.9 °F -4.0 °F 72% 29.54 in 1.0 mi North 34.5 mph 47.2 mph N/A   Light Freezing Rain
9:23 AM 3.2 °F -22.2 °F -4.0 °F 72% 29.54 in 0.5 mi North 32.2 mph 47.2 mph N/A Snow Snow
9:28 AM 3.2 °F -21.8 °F -4.0 °F 72% 29.54 in 0.5 mi North 31.1 mph 42.6 mph N/A Snow Snow
9:33 AM 1.4 °F -23.9 °F -4.0 °F 78% 29.55 in 0.5 mi North 29.9 mph 41.4 mph N/A Snow Snow
9:38 AM 1.4 °F -23.9 °F -4.0 °F 78% 29.56 in 0.8 mi North 29.9 mph 38.0 mph N/A Snow Light Snow
9:39 AM 1.4 °F -23.9 °F -4.0 °F 78% 29.55 in 0.8 mi North 29.9 mph 39.1 mph N/A Snow Light Snow
9:42 AM 1.4 °F -23.5 °F -4.0 °F 78% 29.56 in 0.8 mi North 28.8 mph 39.1 mph N/A   Light Freezing Rain
9:47 AM 1.4 °F -23.5 °F -4.0 °F 78% 29.56 in 1.0 mi North 28.8 mph 39.1 mph N/A   Light Freezing Rain
9:52 AM 1.4 °F -24.6 °F -4.0 °F 78% 29.56 in 1.2 mi North 32.2 mph 38.0 mph N/A   Light Freezing Rain
9:57 AM 1.4 °F -24.3 °F -4.0 °F 78% 29.57 in 1.0 mi North 31.1 mph 38.0 mph N/A Snow Blowing Snow
9:58 AM 1.8 °F -23.8 °F -4.7 °F 74% 29.66 in 1.0 mi North 31.1 mph 38.0 mph 0.00 in Snow Blowing Snow
10:02 AM 1.4 °F -23.9 °F -5.8 °F 72% 29.57 in 0.8 mi North 29.9 mph 38.0 mph N/A Snow Blowing Snow
10:11 AM 1.4 °F -24.3 °F -5.8 °F 72% 29.59 in 0.8 mi North 31.1 mph 41.4 mph N/A Snow Light Snow
10:16 AM 1.4 °F -23.2 °F -5.8 °F 72% 29.59 in 0.8 mi North 27.6 mph 39.1 mph N/A Snow Light Snow
10:21 AM 1.4 °F -21.9 °F -5.8 °F 72% 29.60 in 1.0 mi North 24.2 mph 39.1 mph N/A Snow Light Snow
10:26 AM 1.4 °F -22.3 °F -5.8 °F 72% 29.61 in 1.8 mi North 25.3 mph 34.5 mph N/A   Light Freezing Rain
10:31 AM 1.4 °F -23.9 °F -7.6 °F 66% 29.61 in 1.8 mi North 29.9 mph 33.4 mph N/A   Light Freezing Rain
10:41 AM 1.4 °F -22.3 °F -7.6 °F 66% 29.63 in 1.2 mi North 25.3 mph 39.1 mph N/A   Light Freezing Rain
10:51 AM 1.4 °F -21.4 °F -5.8 °F 72% 29.64 in 1.5 mi North 23.0 mph 33.4 mph N/A   Light Freezing Rain
10:52 AM 1.4 °F -21.4 °F -5.8 °F 72% 29.64 in 1.5 mi NNW 23.0 mph 33.4 mph N/A   Light Freezing Rain
10:57 AM -0.4 °F -27.5 °F -5.8 °F 78% 29.64 in 1.0 mi North 33.4 mph 38.0 mph N/A   Light Freezing Rain
10:58 AM 0.5 °F -25.5 °F -6.2 °F 74% 29.73 in 1.0 mi North 31.1 mph 38.0 mph 0.00 in   Light Freezing Rain
11:03 AM -0.4 °F -26.4 °F -7.6 °F 72% 29.64 in 1.2 mi NNW 29.9 mph 38.0 mph N/A   Light Freezing Rain
11:04 AM -0.4 °F -26.4 °F -7.6 °F 72% 29.64 in 1.2 mi NNW 29.9 mph 38.0 mph N/A   Light Freezing Rain
11:09 AM -0.4 °F -24.7 °F -7.6 °F 72% 29.66 in 1.2 mi North 25.3 mph 36.8 mph N/A   Light Freezing Rain
11:14 AM -0.4 °F -25.2 °F -5.8 °F 78% 29.66 in 0.8 mi North 26.5 mph 38.0 mph N/A   Light Freezing Rain
11:19 AM -0.4 °F -26.0 °F -5.8 °F 78% 29.67 in 0.5 mi North 28.8 mph 38.0 mph N/A Snow Snow
11:20 AM -0.4 °F -25.6 °F -5.8 °F 78% 29.67 in 0.5 mi North 27.6 mph 38.0 mph N/A Snow Snow
11:25 AM -0.4 °F -26.0 °F -5.8 °F 78% 29.67 in 0.5 mi North 28.8 mph 36.8 mph N/A Snow Snow
11:30 AM -0.4 °F -25.6 °F -7.6 °F 72% 29.68 in 0.8 mi North 27.6 mph 38.0 mph N/A Snow Blowing Snow
11:33 AM -0.4 °F -27.5 °F -7.6 °F 72% 29.68 in 0.8 mi North 33.4 mph 44.9 mph N/A Snow Blowing Snow
11:38 AM -0.4 °F -26.7 °F -7.6 °F 72% 29.68 in 0.8 mi North 31.1 mph 44.9 mph N/A Snow Blowing Snow
11:43 AM -0.4 °F -26.0 °F -7.6 °F 72% 29.69 in 0.5 mi North 28.8 mph 43.7 mph N/A Snow Blowing Snow
11:57 AM -0.4 °F -27.1 °F -7.6 °F 72% 29.71 in 0.5 mi North 32.2 mph 41.4 mph N/A Snow Blowing Snow
11:58 AM -0.4 °F -27.1 °F -7.6 °F 72% 29.80 in 0.5 mi North 32.2 mph 41.4 mph 0.00 in Snow Blowing Snow
12:03 PM -0.4 °F -26.7 °F -7.6 °F 72% 29.71 in 0.2 mi North 31.1 mph 40.3 mph N/A Snow Blowing Snow
12:12 PM -0.4 °F -25.6 °F -5.8 °F 78% 29.72 in 0.5 mi North 27.6 mph 38.0 mph N/A Snow Blowing Snow
12:27 PM -0.4 °F -28.1 °F -7.6 °F 72% 29.73 in 0.5 mi North 35.7 mph 41.4 mph N/A Snow Blowing Snow
12:32 PM -0.4 °F -27.5 °F -7.6 °F 72% 29.73 in 0.5 mi North 33.4 mph 43.7 mph N/A Snow Blowing Snow
12:35 PM -2.2 °F -28.8 °F -7.6 °F 78% 29.74 in 0.5 mi North 29.9 mph 43.7 mph N/A Snow Blowing Snow
12:45 PM -2.2 °F -29.6 °F -7.6 °F 78% 29.74 in 0.5 mi North 32.2 mph 43.7 mph N/A Snow Snow
12:50 PM -2.2 °F -29.2 °F -7.6 °F 78% 29.75 in 0.5 mi North 31.1 mph 43.7 mph N/A Snow Blowing Snow
12:52 PM -2.2 °F -29.9 °F -7.6 °F 78% 29.75 in 0.5 mi North 33.4 mph 43.7 mph N/A Snow Blowing Snow
12:54 PM -2.2 °F -29.6 °F -7.6 °F 78% 29.75 in 0.5 mi North 32.2 mph 41.4 mph N/A Snow Blowing Snow
12:58 PM -1.5 °F -28.6 °F -7.8 °F 75% 29.85 in 0.5 mi North 32.2 mph 41.4 mph 0.00 in Snow Blowing Snow
1:03 PM -2.2 °F -29.6 °F -7.6 °F 78% 29.76 in 0.5 mi North 32.2 mph 41.4 mph N/A Snow Blowing Snow
1:08 PM -0.4 °F -25.6 °F -7.6 °F 72% 29.76 in 0.8 mi North 27.6 mph 40.3 mph N/A Snow Blowing Snow
1:13 PM -2.2 °F -28.8 °F -7.6 °F 78% 29.77 in 0.8 mi North 29.9 mph 40.3 mph N/A Snow Blowing Snow
1:18 PM -2.2 °F -29.2 °F -7.6 °F 78% 29.77 in 0.5 mi North 31.1 mph 39.1 mph N/A Snow Blowing Snow
1:22 PM -2.2 °F -29.9 °F -7.6 °F 78% 29.78 in 0.2 mi North 33.4 mph 44.9 mph N/A Snow Blowing Snow
1:32 PM -2.2 °F -29.2 °F -7.6 °F 78% 29.79 in 0.2 mi North 31.1 mph 44.9 mph N/A Snow Blowing Snow
1:33 PM -2.2 °F -29.9 °F -7.6 °F 78% 29.79 in 0.2 mi North 33.4 mph 44.9 mph N/A Snow Blowing Snow
1:38 PM -2.2 °F -29.9 °F -7.6 °F 78% 29.80 in 0.5 mi North 33.4 mph 44.9 mph N/A Snow Blowing Snow
1:40 PM -2.2 °F -29.6 °F -7.6 °F 78% 29.80 in 0.5 mi North 32.2 mph 43.7 mph N/A Snow Blowing Snow
1:48 PM -2.2 °F -28.4 °F -7.6 °F 78% 29.81 in 0.5 mi North 28.8 mph 40.3 mph N/A Snow Blowing Snow
1:53 PM -2.2 °F -29.2 °F -7.6 °F 78% 29.82 in 0.2 mi North 31.1 mph 36.8 mph N/A Snow Blowing Snow
1:55 PM -2.2 °F -29.6 °F -7.6 °F 78% 29.82 in 0.2 mi North 32.2 mph 39.1 mph N/A Snow Blowing Snow
1:58 PM -1.8 °F -29.4 °F -7.4 °F 77% 29.91 in 0.2 mi North 33.4 mph 39.1 mph 0.00 in Snow Blowing Snow
2:03 PM -2.2 °F -29.9 °F -7.6 °F 78% 29.83 in 0.2 mi North 33.4 mph 43.7 mph N/A Snow Blowing Snow
2:08 PM -2.2 °F -29.2 °F -7.6 °F 78% 29.84 in 0.2 mi North 31.1 mph 43.7 mph N/A Snow Blowing Snow
2:13 PM -2.2 °F -30.3 °F -9.4 °F 71% 29.84 in 0.5 mi North 34.5 mph 42.6 mph N/A Snow Blowing Snow
2:23 PM -2.2 °F -29.6 °F -9.4 °F 71% 29.86 in 0.5 mi North 32.2 mph 41.4 mph N/A Snow Blowing Snow
2:32 PM -2.2 °F -29.9 °F -7.6 °F 78% 29.86 in 0.2 mi North 33.4 mph 44.9 mph N/A Snow Blowing Snow
2:37 PM -2.2 °F -28.8 °F -9.4 °F 71% 29.87 in 0.2 mi North 29.9 mph 43.7 mph N/A Snow Blowing Snow
2:39 PM -2.2 °F -30.3 °F -7.6 °F 78% 29.87 in 0.2 mi North 34.5 mph 43.7 mph N/A Snow Blowing Snow
2:49 PM -4.0 °F -31.6 °F -9.4 °F 78% 29.89 in 0.5 mi North 31.1 mph 43.7 mph N/A Snow Blowing Snow
2:54 PM -4.0 °F -32.4 °F -9.4 °F 78% 29.89 in 0.2 mi North 33.4 mph 41.4 mph N/A Snow Blowing Snow
2:56 PM -4.0 °F -30.4 °F -9.4 °F 78% 29.90 in 0.2 mi North 27.6 mph 41.4 mph N/A Snow Blowing Snow
2:57 PM -4.0 °F -32.0 °F -9.4 °F 78% 29.90 in 0.2 mi North 32.2 mph 41.4 mph N/A Snow Blowing Snow
2:58 PM -4.0 °F -32.4 °F -9.4 °F 78% 29.99 in 0.2 mi North 33.4 mph 41.4 mph 0.00 in Snow Blowing Snow
2:59 PM -4.0 °F -32.4 °F -9.4 °F 78% 29.90 in 0.2 mi North 33.4 mph 44.9 mph N/A Snow Blowing Snow
3:09 PM -4.0 °F -29.1 °F -9.4 °F 78% 29.92 in 0.5 mi North 24.2 mph 44.9 mph N/A Snow Blowing Snow
3:14 PM -4.0 °F -30.9 °F -9.4 °F 78% 29.92 in 0.8 mi North 28.8 mph 40.3 mph N/A Snow Light Snow
3:19 PM -4.0 °F -30.4 °F -9.4 °F 78% 29.92 in 0.8 mi North 27.6 mph 34.5 mph N/A Snow Light Snow
3:24 PM -4.0 °F -31.6 °F -9.4 °F 78% 29.93 in 0.5 mi North 31.1 mph 38.0 mph N/A Snow Blowing Snow
3:29 PM -4.0 °F -32.0 °F -9.4 °F 78% 29.93 in 0.5 mi North 32.2 mph 42.6 mph N/A Snow Blowing Snow
3:32 PM -4.0 °F -32.8 °F -9.4 °F 78% 29.94 in 0.2 mi North 34.5 mph 46.0 mph N/A Snow Blowing Snow
3:37 PM -4.0 °F -32.0 °F -11.2 °F 71% 29.95 in 0.5 mi North 32.2 mph 46.0 mph N/A Snow Blowing Snow
3:42 PM -5.8 °F -33.7 °F -11.2 °F 77% 29.95 in 0.5 mi North 29.9 mph 46.0 mph N/A Snow Blowing Snow
3:47 PM -4.0 °F -30.9 °F -11.2 °F 71% 29.96 in 0.8 mi North 28.8 mph 40.3 mph N/A Snow Blowing Snow
3:52 PM -4.0 °F -29.6 °F -11.2 °F 71% 29.96 in 1.5 mi North 25.3 mph 35.7 mph N/A Snow Blowing Snow
3:57 PM -4.0 °F -29.1 °F -13.0 °F 65% 29.97 in 2.0 mi North 24.2 mph 35.7 mph N/A Snow Light Snow
3:58 PM -4.7 °F -30.5 °F -12.3 °F 70% 30.06 in 2.0 mi North 25.3 mph 34.5 mph 0.00 in Snow Light Snow
4:03 PM -5.8 °F -31.5 °F -13.0 °F 71% 29.98 in 3.0 mi North 24.2 mph 34.5 mph N/A   Light Freezing Rain
4:16 PM -5.8 °F -31.0 °F -13.0 °F 71% 30.00 in 4.0 mi North 23.0 mph 33.4 mph N/A Snow Blowing Snow
4:21 PM -5.8 °F -32.0 °F -11.2 °F 77% 30.00 in 3.0 mi North 25.3 mph 33.4 mph N/A   Light Freezing Rain
4:26 PM -5.8 °F -32.4 °F -11.2 °F 77% 30.00 in 1.2 mi North 26.5 mph 33.4 mph N/A Snow Blowing Snow
4:31 PM -5.8 °F -33.7 °F -11.2 °F 77% 30.01 in 0.5 mi North 29.9 mph 38.0 mph N/A Snow Snow
4:36 PM -5.8 °F -32.0 °F -11.2 °F 77% 30.02 in 0.5 mi North 25.3 mph 38.0 mph N/A Snow Snow
4:41 PM -5.8 °F -32.0 °F -11.2 °F 77% 30.02 in 0.5 mi NNW 25.3 mph 38.0 mph N/A Snow Snow
4:46 PM -5.8 °F -29.9 °F -11.2 °F 77% 30.04 in 1.5 mi North 20.7 mph 35.7 mph N/A Snow Light Snow
4:51 PM -5.8 °F -31.0 °F -11.2 °F 77% 30.04 in 2.5 mi NNW 23.0 mph 31.1 mph N/A Snow Blowing Snow
4:57 PM -5.8 °F -28.8 °F -11.2 °F 77% 30.05 in 2.5 mi NNW 18.4 mph 29.9 mph N/A   Light Freezing Rain
4:58 PM -5.8 °F -28.8 °F -12.1 °F 74% 30.14 in 2.5 mi NNW 18.4 mph 29.9 mph 0.00 in   Light Freezing Rain
5:08 PM -5.8 °F -30.5 °F -13.0 °F 71% 30.06 in 1.5 mi North 21.9 mph 28.8 mph N/A Snow Light Snow
5:13 PM -5.8 °F -30.5 °F -13.0 °F 71% 30.06 in 1.5 mi North 21.9 mph 29.9 mph N/A Snow Light Snow
5:18 PM -7.6 °F -34.4 °F -13.0 °F 77% 30.06 in 1.2 mi North 25.3 mph 34.5 mph N/A Snow Blowing Snow
5:23 PM -7.6 °F -32.3 °F -14.8 °F 71% 30.06 in 1.5 mi NNW 20.7 mph 34.5 mph N/A Snow Blowing Snow
5:28 PM -7.6 °F -32.9 °F -14.8 °F 71% 30.07 in 3.0 mi NNW 21.9 mph 31.1 mph N/A   Light Freezing Rain
5:33 PM -7.6 °F -34.4 °F -14.8 °F 71% 30.07 in 3.0 mi NNW 25.3 mph 32.2 mph N/A   Light Freezing Rain
5:38 PM -7.6 °F -33.4 °F -16.6 °F 65% 30.08 in 4.0 mi NNW 23.0 mph 32.2 mph N/A   Light Freezing Rain
5:43 PM -7.6 °F -33.4 °F -16.6 °F 65% 30.08 in 3.0 mi NNW 23.0 mph 32.2 mph N/A   Light Freezing Rain
5:45 PM -7.6 °F -34.4 °F -16.6 °F 65% 30.08 in 3.0 mi NNW 25.3 mph 32.2 mph N/A   Light Freezing Rain
5:50 PM -7.6 °F -33.4 °F -14.8 °F 71% 30.09 in 2.5 mi North 23.0 mph 34.5 mph N/A Snow Blowing Snow
5:55 PM -9.4 °F -36.3 °F -14.8 °F 77% 30.09 in 2.5 mi North 24.2 mph 34.5 mph N/A Snow Blowing Snow
5:58 PM -9.4 °F -35.8 °F -14.8 °F 77% 30.18 in 3.0 mi North 23.0 mph 34.5 mph 0.00 in Snow Blowing Snow
6:03 PM -9.4 °F -34.1 °F -14.8 °F 77% 30.09 in 4.0 mi North 19.6 mph 28.8 mph N/A   Light Freezing Rain
6:08 PM -9.4 °F -34.1 °F -16.6 °F 71% 30.10 in 5.0 mi North 19.6 mph 28.8 mph N/A   Light Freezing Rain
6:13 PM -9.4 °F -35.2 °F -16.6 °F 71% 30.10 in 8.0 mi North 21.9 mph 27.6 mph N/A   Light Freezing Rain
6:23 PM -9.4 °F -36.3 °F -18.4 °F 65% 30.11 in 8.0 mi North 24.2 mph 28.8 mph N/A   Light Freezing Rain
6:48 PM -11.2 °F -35.2 °F -18.4 °F 70% 30.12 in 9.0 mi North 17.3 mph - N/A   Light Freezing Rain
6:53 PM -11.2 °F -35.8 °F -18.4 °F 70% 30.13 in 10.0 mi North 18.4 mph - N/A   Light Freezing Rain
6:58 PM -10.5 °F -34.9 °F -18.4 °F 68% 30.23 in 10.0 mi North 18.4 mph - 0.00 in   Light Freezing Rain
6:59 PM -11.2 °F -35.8 °F -18.4 °F 70% 30.13 in 10.0 mi North 18.4 mph - N/A   Light Freezing Rain
7:14 PM -11.2 °F -37.6 °F -18.4 °F 70% 30.15 in 6.0 mi North 21.9 mph 35.7 mph N/A   Light Freezing Rain
7:24 PM -11.2 °F -37.6 °F -18.4 °F 70% 30.16 in 5.0 mi North 21.9 mph 31.1 mph N/A   Light Freezing Rain
7:29 PM -11.2 °F -37.6 °F -18.4 °F 70% 30.16 in 5.0 mi North 21.9 mph 31.1 mph N/A   Light Freezing Rain
7:39 PM -11.2 °F -35.8 °F -20.2 °F 64% 30.17 in 10.0 mi North 18.4 mph 28.8 mph N/A   Light Freezing Rain
7:58 PM -12.1 °F -35.6 °F -20.7 °F 65% 30.29 in 10.0 mi North 16.1 mph - 0.00 in   Light Freezing Rain
8:13 PM -13.0 °F -36.8 °F -22.0 °F 64% 30.20 in 10.0 mi North 16.1 mph - N/A Snow Light Snow
8:16 PM -13.0 °F -36.0 °F -22.0 °F 64% 30.20 in 10.0 mi North 15.0 mph - N/A Snow Light Snow
8:19 PM -13.0 °F -35.2 °F -20.2 °F 70% 30.21 in 10.0 mi North 13.8 mph - N/A   Mostly Cloudy
8:49 PM -13.0 °F -35.2 °F -22.0 °F 64% 30.22 in 10.0 mi NNW 13.8 mph - N/A   Scattered Clouds
8:54 PM -13.0 °F -38.8 °F -22.0 °F 64% 30.22 in 10.0 mi North 19.6 mph 24.2 mph N/A   Mostly Cloudy
8:58 PM -11.2 °F -35.2 °F -22.0 °F 59% 30.32 in 10.0 mi North 17.3 mph 24.2 mph 0.00 in   Mostly Cloudy
9:08 PM -11.2 °F -36.4 °F -20.2 °F 64% 30.22 in 10.0 mi North 19.6 mph 26.5 mph N/A   Scattered Clouds
9:13 PM -11.2 °F -37.0 °F -22.0 °F 59% 30.23 in 10.0 mi North 20.7 mph 24.2 mph N/A   Mostly Cloudy
9:43 PM -13.0 °F -34.3 °F -22.0 °F 64% 30.25 in 10.0 mi NNW 12.7 mph - N/A   Overcast
9:47 PM -11.2 °F -32.1 °F -22.0 °F 59% 30.25 in 10.0 mi NNW 12.7 mph - N/A   Overcast
9:57 PM -11.2 °F -32.9 °F -22.0 °F 59% 30.25 in 10.0 mi NNW 13.8 mph - N/A   Overcast
9:58 PM -12.1 °F -33.2 °F -21.3 °F 64% 30.35 in 10.0 mi NNW 12.7 mph - N/A   Overcast
9:59 PM -11.2 °F -32.1 °F -22.0 °F 59% 30.25 in 10.0 mi NW 12.7 mph - N/A   Overcast
10:21 PM -11.2 °F -35.2 °F -20.2 °F 64% 30.25 in 10.0 mi NW 17.3 mph - N/A Snow Light Snow
10:31 PM -13.0 °F -36.8 °F -20.2 °F 70% 30.25 in 10.0 mi NNW 16.1 mph - N/A Snow Light Snow
10:36 PM -13.0 °F -36.8 °F -20.2 °F 70% 30.26 in 10.0 mi NNW 16.1 mph - N/A Snow Light Snow
10:37 PM -13.0 °F -36.8 °F -20.2 °F 70% 30.26 in 10.0 mi NNW 16.1 mph - N/A   Overcast
10:38 PM -13.0 °F -36.8 °F -20.2 °F 70% 30.26 in 10.0 mi NNW 16.1 mph - N/A Snow Light Snow
10:43 PM -13.0 °F -37.5 °F -20.2 °F 70% 30.26 in 10.0 mi NNW 17.3 mph 24.2 mph N/A Snow Light Snow
10:48 PM -13.0 °F -36.0 °F -20.2 °F 70% 30.26 in 10.0 mi NNW 15.0 mph 24.2 mph N/A Snow Light Snow
10:51 PM -13.0 °F -36.0 °F -20.2 °F 70% 30.27 in 10.0 mi NNW 15.0 mph 24.2 mph N/A   Overcast
10:58 PM -12.6 °F -35.5 °F -20.9 °F 67% 30.38 in 10.0 mi NNW 15.0 mph - 0.00 in   Overcast
11:00 PM -13.0 °F -36.0 °F -20.2 °F 70% 30.27 in 10.0 mi NNW 15.0 mph - N/A Snow Light Snow
11:06 PM -13.0 °F -36.0 °F -20.2 °F 70% 30.27 in 10.0 mi NNW 15.0 mph - N/A Snow Light Snow
11:18 PM -13.0 °F -36.8 °F -22.0 °F 64% 30.27 in 10.0 mi NNW 16.1 mph - N/A   Overcast
11:28 PM -13.0 °F -36.0 °F -22.0 °F 64% 30.27 in 10.0 mi NNW 15.0 mph - N/A   Overcast
11:58 PM -13.5 °F -37.5 °F -21.8 °F 66% 30.39 in 10.0 mi NNW 16.1 mph - 0.00 in   Overcast